Location: Franzen
(48.6167°N, 15.3833°E)
Time: 20:39:17
(UTC+00:00)

Transit 2A - Pass Details

Date: 09 August 2021
Orbit: 594 x 964 km, 66.7° (Epoch: 27 September)

Event Time Altitude Azimuth Distance (km) Brightness Sun altitude
Rises 05:51:08 0° 275° (W) 2,935 8.4 19.5°
Reaches altitude 10° 05:54:14 10° 298° (WNW) 2,086 7.8 20.0°
Maximum altitude 05:57:04 16° 336° (NNW) 1,800 7.8 20.5°
Drops below altitude 10° 06:00:03 10° 12° (NNE) 2,219 8.6 21.0°
Sets 06:03:32 0° 35° (NE) 3,231 9.7 21.5°
